Regional Weather Roundup
Issued by NWS

Home | Current Version | Previous Version | Graphics & Text | Print | Product List | Glossary On
Versions: 1 2 3 4 5 6 7 8 9 10 11 12 13 14 15 16 17 18 19 20 21 22 23 24 25 26 27 28 29 30 31 32 33 34 35 36 37 38 39 40 41 42 43 44 45 46 47 48 49 50
000
ASUS45 KPSR 290210
RWRAZ

ARIZONA REGIONAL HOURLY WEATHER ROUNDUP
NATIONAL WEATHER SERVICE PHOENIX AZ
700 PM MST FRI NOV 28 2014

NOTE: FAIR INDICATES FEW OR NO CLOUDS BELOW 12,000 FEET WITH NO
SIGNIFICANT WEATHER AND/OR OBSTRUCTIONS TO VISIBILITY.

AZZ001>003-036-290300-
NORTHWEST ARIZONA

CITY           SKY/WX    TMP DP  RH WIND       PRES   REMARKS
BULLHEAD CITY  CLEAR     64  25  22 SE7       29.89F
KINGMAN        CLEAR     53  17  24 S12       29.98S
$$

AZZ004>008-015-016-018-290300-
NORTH CENTRAL ARIZONA

CITY           SKY/WX    TMP DP  RH WIND       PRES   REMARKS
GRAND CANYON   CLEAR     34   6  31 SW5       30.11F WCI  30
PRESCOTT       CLEAR     56  15  20 S6        30.08S
FLAGSTAFF      CLEAR     42  14  32 SW8       30.15F
PAYSON         CLEAR     55  19  24 CALM      30.12S
PAGE           CLEAR     47  20  34 W3        29.99F
$$

AZZ009>014-017-290300-
NORTHEAST ARIZONA

CITY           SKY/WX    TMP DP  RH WIND       PRES   REMARKS
WINSLOW        PTCLDY    47   9  21 SW12      30.05S
SAINT JOHNS    PTCLDY    57  16  20 SW15      30.07F
SHOW LOW       CLEAR     48  16  27 S9        30.17S
$$

AZZ023-290300-
GREATER PHOENIX AREA

CITY           SKY/WX    TMP DP  RH WIND       PRES   REMARKS
PHOENIX        CLEAR     71  29  21 CALM      29.89S
BUCKEYE          N/A     63  25  23 NE6       29.90S
GLENDALE       CLEAR     70  30  23 CALM      29.91S
LUKE AFB       CLEAR     61  39  44 NW5       29.89S
DEER VALLEY    CLEAR     62  22  21 CALM      29.91S
SCOTTSDALE     CLEAR     66  29  24 CALM      29.93R
MESA-FALCON    CLEAR     66  28  24 SW7       29.91
MESA-GATEWAY   CLEAR     64  27  24 CALM      29.93S
CHANDLER       CLEAR     66  34  30 VRB6      29.91S
$$

AZZ027-028-290300-
SOUTHWEST MARICOPA COUNTY AND PINAL COUNTY

CITY           SKY/WX    TMP DP  RH WIND       PRES   REMARKS
CASA GRANDE    CLEAR     66  28  24 CALM      29.93S
$$

AZZ503-504-507>509-290300-
SOUTHEAST ARIZONA

CITY           SKY/WX    TMP DP  RH WIND       PRES   REMARKS
TUCSON         CLEAR     69  23  17 W5        30.00R
DAVIS-MONTHAN  CLEAR     67  22  18 NW6       29.98R
RYAN FIELD       N/A    N/A N/A N/A SW5       29.99R
NOGALES        CLEAR     59  21  23 E6        30.05R
SIERRA VISTA   CLEAR     59  15  18 SW10      30.08S
DOUGLAS        CLEAR     54  20  26 E9        30.07S
SAFFORD        CLEAR     55  21  26 NE6       30.01S
$$

AZZ020-021-025-026-031-290300-
SOUTHWEST ARIZONA

CITY           SKY/WX    TMP DP  RH WIND       PRES   REMARKS
YUMA           PTCLDY    70  31  23 CALM      29.86S
$$

CAZ031-033-041-043-047-048-061-290300-
SOUTHERN CALIFORNIA

CITY           SKY/WX    TMP DP  RH WIND       PRES   REMARKS
DOWNTOWN L.A.  CLEAR     66  46  48 CALM      29.88S
L.A. AIRPORT   PTCLDY    65  57  75 W5        29.89S
SAN DIEGO      PTCLDY    67  60  78 CALM      29.90S
BURBANK        CLEAR     69  32  25 SE3       29.89S
ONTARIO        CLEAR     67  32  27 W6        29.90S
RIVERSIDE      CLEAR     72  35  25 W5        29.90R
PALM SPRINGS   CLEAR     73  30  20 CALM      29.89S
EL CENTRO NAS  CLEAR     65  35  33 N3        29.85S
IMPERIAL       CLEAR     67  34  29 NW3       29.85S
BLYTHE         CLEAR     65  30  27 CALM      29.87S
NEEDLES        CLEAR     61  20  20 W3        29.89S
$$

NVZ020-UTZ003-290300-
SOUTHERN NEVADA-UTAH

CITY           SKY/WX    TMP DP  RH WIND       PRES   REMARKS
LAS VEGAS      CLEAR     60  23  24 S9        29.87S
SALT LAKE CITY PTCLDY    56  15  20 S13       29.80F
$$

NMZ009-TXZ055-290300-
NEW MEXICO-WEST TEXAS

CITY           SKY/WX    TMP DP  RH WIND       PRES   REMARKS
ALBUQUERQUE    CLEAR     49  19  30 E6        30.09F
EL PASO        CLEAR     58  20  22 SE5       30.08S
$$


........................KEY........................
SKY/WX - SKY CONDITION/WEATHER
TMP    - TEMPERATURE IN FAHRENHEIT
DP     - DEW POINT IN FAHRENHEIT
RH     - RELATIVE HUMIDITY IN PERCENT
WIND   - DIRECTION AND SPEED IN MILES PER HOUR (MPH)
VRB    - VARIABLE WIND DIRECTION
PRES   - MEAN SEA LEVEL PRESSURE IN INCHES OF MERCURY
         F - FALLING PRESSURE   R - RISING PRESSURE
         S - STEADY PRESSURE
VSB    - VISIBILITY IN MILES
HX     - HEAT INDEX IN FAHRENHEIT
WCI    - WIND CHILL INDEX IN FAHRENHEIT
TC     - TEMPERATURE IN CELSIUS WHICH IS ALSO KNOWN AS
         TEMPERATURE IN CENTIGRADE
AFB    - AIR FORCE BASE
         LUKE AFB IS LUKE AIR FORCE BASE
         DAVIS-MONTHAN IS DAVIS-MONTHAN AIR FORCE BASE
NAS    - NAVAL AIR STATION
         EL CENTRO NAS IS EL CENTRO NAVAL AIR STATION
N/A    - NOT AVAILABLE


USA.gov is the U.S. government's official web portal to all federal, state and local government web resources and services.